,,Stat6,,Stat2,,Stat8,,Stat9,,Stat10,,Wind1,,Wind1,
time,status,PA1M_AVG,status,PR1M_SUM,status,RH1M_AVG,status,SR1M_AVG,status,TA1M_AVG,status,W1dAve1m,status,W1sAve1m,
2004-04-30, 00:00:00,VALID,915.355,VALID,0,VALID,98.4553,VALID,-0.0169808,VALID,19.2553,VALID,99,VALID,0.611979,
2004-04-30, 00:01:00,VALID,915.359,VALID,0,VALID,98.4756,VALID,-0.0169808,VALID,19.2397,VALID,90,VALID,0.865189,
2004-04-30, 00:02:00,VALID,915.36,VALID,0,VALID,98.4464,VALID,-0.0169808,VALID,19.2233,VALID,62,VALID,0.871366,
2004-04-30, 00:03:00,VALID,915.366,VALID,0,VALID,98.4336,VALID,-0.0169808,VALID,19.2332,VALID,96,VALID,1.11319,
2004-04-30, 00:04:00,VALID,915.355,VALID,0,VALID,98.3751,VALID,-0.0169808,VALID,19.2494,VALID,97,VALID,0.853795,
2004-04-30, 00:05:00,VALID,915.35,VALID,0,VALID,98.2671,VALID,-0.0169808,VALID,19.262,VALID,78,VALID,0.666193,
2004-04-30, 00:06:00,VALID,915.361,VALID,0,VALID,98.1119,VALID,-0.0339617,VALID,19.2759,VALID,96,VALID,0.982031,
2004-04-30, 00:07:00,VALID,915.358,VALID,0,VALID,97.9441,VALID,-0.0509425,VALID,19.2888,VALID,102,VALID,0.799237,
2004-04-30, 00:08:00,VALID,915.372,VALID,0,VALID,97.8169,VALID,-0.0169808,VALID,19.2784,VALID,91,VALID,0.472202,
2004-04-30, 00:09:00,VALID,915.344,VALID,0,VALID,97.7203,VALID,-0.0509425,VALID,19.2821,VALID,85,VALID,0.676781,
2004-04-30, 00:10:00,VALID,915.345,VALID,0,VALID,97.5956,VALID,-0.0169808,VALID,19.2851,VALID,105,VALID,0.806176,
2004-04-30, 00:11:00,VALID,915.348,VALID,0,VALID,97.3947,VALID,-0.0169808,VALID,19.2759,VALID,99,VALID,0.407366,
2004-04-30, 00:12:00,VALID,915.339,VALID,0,VALID,97.2739,VALID,-0.0679233,VALID,19.2784,VALID,96,VALID,0.317073,
2004-04-30, 00:13:00,VALID,915.337,VALID,0,VALID,97.1277,VALID,-0.0679233,VALID,19.272,VALID,88,VALID,0.791319,
2004-04-30, 00:14:00,VALID,915.334,VALID,0,VALID,96.9281,VALID,-0.0509425,VALID,19.275,VALID,40,VALID,0.693132,
2004-04-30, 00:15:00,VALID,915.327,VALID,0,VALID,96.8416,VALID,-0.0679233,VALID,19.2819,VALID,33,VALID,0.611235,
2004-04-30, 00:16:00,VALID,915.327,VALID,0,VALID,96.8289,VALID,-0.0509425,VALID,19.2854,VALID,41,VALID,0.414435,
2004-04-30, 00:17:00,VALID,915.324,VALID,0,VALID,96.8378,VALID,-0.0169808,VALID,19.2792,VALID,44,VALID,0.332217,
2004-04-30, 00:18:00,VALID,915.331,VALID,0,VALID,97.0044,VALID,-0.0169808,VALID,19.2655,VALID,100,VALID,0.461133,
2004-04-30, 00:19:00,VALID,915.323,VALID,0,VALID,96.8734,VALID,0,VALID,19.2784,VALID,46,VALID,0.666788,
2004-04-30, 00:20:00,VALID,915.319,VALID,0,VALID,96.909,VALID,-0.0169808,VALID,19.266,VALID,35,VALID,0.675,
2004-04-30, 00:21:00,VALID,915.321,VALID,0,VALID,96.9484,VALID,-0.0679233,VALID,19.2531,VALID,33,VALID,0.621189,
2004-04-30, 00:22:00,VALID,915.323,VALID,0,VALID,97.0234,VALID,-0.0509425,VALID,19.2335,VALID,33,VALID,0.674361,
2004-04-30, 00:23:00,VALID,915.319,VALID,0,VALID,97.2625,VALID,-0.0169808,VALID,19.2431,VALID,49,VALID,0.666349,
2004-04-30, 00:24:00,VALID,915.314,VALID,0,VALID,97.2231,VALID,-0.0169808,VALID,19.2399,VALID,57,VALID,0.479403,
2004-04-30, 00:25:00,VALID,915.315,VALID,0,VALID,97.1875,VALID,-0.0679233,VALID,19.2498,VALID,58,VALID,0.473958,
2004-04-30, 00:26:00,VALID,915.307,VALID,0,VALID,97.1366,VALID,-0.0169808,VALID,19.2434,VALID,62,VALID,0.553961,
2004-04-30, 00:27:00,VALID,915.32,VALID,0,VALID,97.1328,VALID,-0.0169808,VALID,19.2404,VALID,75,VALID,0.15346,
2004-04-30, 00:28:00,VALID,915.308,VALID,0,VALID,97.0285,VALID,-0.0849042,VALID,19.2335,VALID,75,VALID,0,
2004-04-30, 00:29:00,VALID,915.307,VALID,0,VALID,96.9777,VALID,-0.0679233,VALID,19.228,VALID,75,VALID,0,
2004-04-30, 00:30:00,VALID,915.308,VALID,0,VALID,97.0018,VALID,-0.0169808,VALID,19.182,VALID,75,VALID,0,
2004-04-30, 00:31:00,VALID,915.292,VALID,0,VALID,97.0501,VALID,-0.0339617,VALID,19.1564,VALID,75,VALID,0,
2004-04-30, 00:32:00,VALID,915.283,VALID,0,VALID,97.1239,VALID,-0.0679233,VALID,19.1279,VALID,75,VALID,0,
2004-04-30, 00:33:00,VALID,915.265,VALID,0,VALID,97.2625,VALID,-0.0509425,VALID,19.0792,VALID,75,VALID,0.0671074,
2004-04-30, 00:34:00,VALID,915.236,VALID,0,VALID,97.5626,VALID,-0.0849042,VALID,19.0598,VALID,75,VALID,0.340732,
2004-04-30, 00:35:00,VALID,915.209,VALID,0,VALID,97.9759,VALID,-0.0509425,VALID,19.0531,VALID,76,VALID,0.660156,
2004-04-30, 00:36:00,VALID,915.173,VALID,0,VALID,98.3904,VALID,-0.0169808,VALID,19.0789,VALID,101,VALID,0.818945,
2004-04-30, 00:37:00,VALID,915.145,VALID,0,VALID,98.4489,VALID,-0.0169808,VALID,19.1145,VALID,83,VALID,0.695685,
2004-04-30, 00:38:00,VALID,915.128,VALID,0,VALID,98.248,VALID,-0.0849042,VALID,19.1179,VALID,69,VALID,0.845465,
2004-04-30, 00:39:00,VALID,915.09,VALID,0,VALID,98.2772,VALID,-0.0339617,VALID,19.1177,VALID,69,VALID,0.733648,
2004-04-30, 00:40:00,VALID,915.068,VALID,0,VALID,98.2264,VALID,-0.0509425,VALID,19.1145,VALID,76,VALID,0.571181,
2004-04-30, 00:41:00,VALID,915.05,VALID,0,VALID,98.3103,VALID,-0.0339617,VALID,19.108,VALID,102,VALID,0.861421,
2004-04-30, 00:42:00,VALID,915.032,VALID,0,VALID,98.1755,VALID,-0.0509425,VALID,19.1408,VALID,102,VALID,0.785714,
2004-04-30, 00:43:00,VALID,915.012,VALID,0,VALID,97.9987,VALID,-0.0509425,VALID,19.1567,VALID,106,VALID,0.815104,
2004-04-30, 00:44:00,VALID,914.994,VALID,0,VALID,97.8207,VALID,-0.0339617,VALID,19.1564,VALID,108,VALID,0.544876,
2004-04-30, 00:45:00,VALID,914.979,VALID,0,VALID,97.6376,VALID,-0.0509425,VALID,19.1274,VALID,74,VALID,0.53234,
2004-04-30, 00:46:00,VALID,914.971,VALID,0,VALID,97.6694,VALID,-0.0509425,VALID,19.1045,VALID,66,VALID,0.411632,
2004-04-30, 00:47:00,VALID,914.95,VALID,0,VALID,97.6707,VALID,-0.0849042,VALID,19.0697,VALID,66,VALID,0.467607,
2004-04-30, 00:48:00,VALID,914.943,VALID,0,VALID,97.8284,VALID,0,VALID,19.0363,VALID,66,VALID,0.786005,
2004-04-30, 00:49:00,VALID,914.932,VALID,0,VALID,98.0318,VALID,0.0509425,VALID,19.0452,VALID,66,VALID,0.840588,
2004-04-30, 00:50:00,VALID,914.919,VALID,0,VALID,97.9555,VALID,0.0679233,VALID,19.0653,VALID,66,VALID,0.668786,
2004-04-30, 00:51:00,VALID,914.908,VALID,0,VALID,97.8576,VALID,0.0679233,VALID,19.0676,VALID,66,VALID,0.279102,
2004-04-30, 00:52:00,VALID,914.9,VALID,0,VALID,97.7889,VALID,0.0849042,VALID,19.0842,VALID,61,VALID,0.154726,
2004-04-30, 00:53:00,VALID,914.889,VALID,0,VALID,97.6898,VALID,0.0169808,VALID,19.0614,VALID,37,VALID,0.199405,
2004-04-30, 00:54:00,VALID,914.87,VALID,0,VALID,97.7088,VALID,0.0679233,VALID,19.0487,VALID,37,VALID,0.0832741,
2004-04-30, 00:55:00,VALID,914.851,VALID,0,VALID,97.822,VALID,0.0509425,VALID,19.0355,VALID,37,VALID,0.124238,
2004-04-30, 00:56:00,VALID,914.837,VALID,0,VALID,97.8665,VALID,0.0849042,VALID,19.042,VALID,37,VALID,0,
2004-04-30, 00:57:00,VALID,914.825,VALID,0,VALID,97.8983,VALID,0.0169808,VALID,19.0388,VALID,37,VALID,0,
2004-04-30, 00:58:00,VALID,914.823,VALID,0,VALID,97.869,VALID,0.0509425,VALID,19.042,VALID,37,VALID,0.0981889,
2004-04-30, 00:59:00,VALID,914.805,VALID,0,VALID,97.8195,VALID,0.0339617,VALID,19.0427,VALID,37,VALID,0.161272,
2004-04-30, 01:00:00,VALID,914.784,VALID,0,VALID,97.8741,VALID,0.0339617,VALID,19.0325,VALID,42,VALID,0.283537,
2004-04-30, 01:01:00,VALID,914.784,VALID,0,VALID,97.9606,VALID,0.0509425,VALID,19.0166,VALID,70,VALID,0.460405,
2004-04-30, 01:02:00,VALID,914.76,VALID,0,VALID,98.1424,VALID,0.0509425,VALID,19.007,VALID,87,VALID,0.484933,
2004-04-30, 01:03:00,VALID,914.737,VALID,0,VALID,98.2645,VALID,0.0509425,VALID,18.9938,VALID,111,VALID,0.584666,
2004-04-30, 01:04:00,VALID,914.714,VALID,0,VALID,98.4209,VALID,0.0679233,VALID,18.9809,VALID,144,VALID,0.61701,
2004-04-30, 01:05:00,VALID,914.693,VALID,0,VALID,98.6969,VALID,0.0339617,VALID,18.9804,VALID,147,VALID,0.438072,
2004-04-30, 01:06:00,VALID,914.689,VALID,0,VALID,98.8749,VALID,0.0679233,VALID,18.9675,VALID,147,VALID,0.355574,
2004-04-30, 01:07:00,VALID,914.681,VALID,0,VALID,99.0809,VALID,0.0509425,VALID,18.971,VALID,147,VALID,0.113653,
2004-04-30, 01:08:00,VALID,914.67,VALID,0,VALID,99.1419,VALID,0.0849042,VALID,18.9615,VALID,147,VALID,0.125372,
2004-04-30, 01:09:00,VALID,914.661,VALID,0,VALID,99.2246,VALID,0.0169808,VALID,18.9454,VALID,144,VALID,0.507631,
2004-04-30, 01:10:00,VALID,914.643,VALID,0,VALID,99.3314,VALID,0.0679233,VALID,18.9223,VALID,143,VALID,0.686228,
2004-04-30, 01:11:00,VALID,914.639,VALID,0,VALID,99.4382,VALID,0.0849042,VALID,18.9131,VALID,143,VALID,0.582465,
2004-04-30, 01:12:00,VALID,914.634,VALID,0,VALID,99.5539,VALID,0.0849042,VALID,18.9002,VALID,143,VALID,0.567535,
2004-04-30, 01:13:00,VALID,914.629,VALID,0,VALID,99.6556,VALID,0.0339617,VALID,18.8773,VALID,143,VALID,0.543478,
2004-04-30, 01:14:00,VALID,914.615,VALID,0,VALID,99.7765,VALID,0.0849042,VALID,18.8741,VALID,143,VALID,0.636133,
2004-04-30, 01:15:00,VALID,914.612,VALID,0,VALID,99.8591,VALID,0.0169808,VALID,18.8713,VALID,141,VALID,0.617188,
2004-04-30, 01:16:00,VALID,914.595,VALID,0,VALID,99.8527,VALID,0.0509425,VALID,18.8487,VALID,134,VALID,0.518466,
2004-04-30, 01:17:00,VALID,914.58,VALID,0,VALID,99.9201,VALID,0.0169808,VALID,18.8194,VALID,134,VALID,0.679142,
2004-04-30, 01:18:00,VALID,914.566,VALID,0,VALID,99.943,VALID,-0.0169808,VALID,18.8209,VALID,134,VALID,0.526042,
2004-04-30, 01:19:00,VALID,914.545,VALID,0,VALID,99.9494,VALID,-0.0509425,VALID,18.7752,VALID,134,VALID,0.558408,
2004-04-30, 01:20:00,VALID,914.54,VALID,0,VALID,99.9952,VALID,-0.0509425,VALID,18.7692,VALID,132,VALID,0.781836,
2004-04-30, 01:21:00,VALID,914.523,VALID,0,VALID,100,VALID,-0.0509425,VALID,18.7761,VALID,130,VALID,0.715216,
2004-04-30, 01:22:00,VALID,914.513,VALID,0,VALID,100,VALID,-0.0509425,VALID,18.7662,VALID,130,VALID,0.458705,
2004-04-30, 01:23:00,VALID,914.501,VALID,0,VALID,100,VALID,-0.0169808,VALID,18.7496,VALID,130,VALID,0.653232,
2004-04-30, 01:24:00,VALID,914.494,VALID,0,VALID,100,VALID,-0.0339617,VALID,18.7335,VALID,129,VALID,0.508557,
2004-04-30, 01:25:00,VALID,914.479,VALID,0,VALID,100,VALID,-0.0169808,VALID,18.7143,VALID,129,VALID,0.602134,
2004-04-30, 01:26:00,VALID,914.475,VALID,0,VALID,100,VALID,-0.0339617,VALID,18.7109,VALID,132,VALID,0.564732,
2004-04-30, 01:27:00,VALID,914.466,VALID,0,VALID,100,VALID,0.0339617,VALID,18.6968,VALID,132,VALID,0.72934,
2004-04-30, 01:28:00,VALID,914.444,VALID,0,VALID,100,VALID,0.0679233,VALID,18.6965,VALID,156,VALID,0.554688,
2004-04-30, 01:29:00,VALID,914.424,VALID,0,VALID,100,VALID,0.0849042,VALID,18.7032,VALID,151,VALID,0.920422,
2004-04-30, 01:30:00,VALID,914.417,VALID,0,VALID,100,VALID,0.0339617,VALID,18.7355,VALID,141,VALID,0.827381,
2004-04-30, 01:31:00,VALID,914.413,VALID,0,VALID,100,VALID,0.0509425,VALID,18.7482,VALID,132,VALID,0.519804,
2004-04-30, 01:32:00,VALID,914.382,VALID,0,VALID,100,VALID,0.0509425,VALID,18.7581,VALID,149,VALID,0.670387,
2004-04-30, 01:33:00,VALID,914.369,VALID,0,VALID,100,VALID,0.0339617,VALID,18.7553,VALID,154,VALID,0.565696,
2004-04-30, 01:34:00,VALID,914.345,VALID,0,VALID,100,VALID,-0.0169808,VALID,18.7528,VALID,154,VALID,0.512251,
2004-04-30, 01:35:00,VALID,914.322,VALID,0,VALID,100,VALID,-0.0509425,VALID,18.7401,VALID,154,VALID,0.721354,
2004-04-30, 01:36:00,VALID,914.319,VALID,0,VALID,100,VALID,0,VALID,18.7364,VALID,154,VALID,0.688408,
2004-04-30, 01:37:00,VALID,914.302,VALID,0,VALID,100,VALID,-0.0339617,VALID,18.7302,VALID,156,VALID,0.70206,
2004-04-30, 01:38:00,VALID,914.293,VALID,0,VALID,100,VALID,-0.0509425,VALID,18.7208,VALID,159,VALID,0.452415,
2004-04-30, 01:39:00,VALID,914.291,VALID,0,VALID,100,VALID,-0.0169808,VALID,18.7014,VALID,134,VALID,0.120117,
2004-04-30, 01:40:00,VALID,914.28,VALID,0,VALID,100,VALID,0,VALID,18.6654,VALID,71,VALID,0.376453,
2004-04-30, 01:41:00,VALID,914.261,VALID,0,VALID,99.9891,VALID,-0.0169808,VALID,18.5817,VALID,67,VALID,0.532738,
2004-04-30, 01:42:00,VALID,914.252,VALID,0,VALID,99.9743,VALID,-0.0509425,VALID,18.5075,VALID,67,VALID,0.425327,
2004-04-30, 01:43:00,VALID,914.228,VALID,0,VALID,100,VALID,-0.0339617,VALID,18.5015,VALID,67,VALID,0.394531,
2004-04-30, 01:44:00,VALID,914.206,VALID,0,VALID,100,VALID,-0.0339617,VALID,18.5337,VALID,67,VALID,0.541424,
2004-04-30, 01:45:00,VALID,914.192,VALID,0,VALID,100,VALID,0,VALID,18.5884,VALID,69,VALID,0.49375,
2004-04-30, 01:46:00,VALID,914.162,VALID,0,VALID,100,VALID,-0.0169808,VALID,18.6145,VALID,69,VALID,0.352805,
2004-04-30, 01:47:00,VALID,914.142,VALID,0,VALID,100,VALID,-0.0169808,VALID,18.614,VALID,69,VALID,0.15293,
2004-04-30, 01:48:00,VALID,914.109,VALID,0,VALID,100,VALID,-0.0509425,VALID,18.5884,VALID,68,VALID,0.0411585,
2004-04-30, 01:49:00,VALID,914.098,VALID,0,VALID,99.9865,VALID,-0.101885,VALID,18.4982,VALID,68,VALID,0.191883,
2004-04-30, 01:50:00,VALID,914.083,VALID,0,VALID,99.9112,VALID,-0.0509425,VALID,18.4237,VALID,68,VALID,0.254616,
2004-04-30, 01:51:00,VALID,914.058,VALID,0,VALID,99.8591,VALID,-0.0679233,VALID,18.3788,VALID,68,VALID,0.262952,
2004-04-30, 01:52:00,VALID,914.042,VALID,0,VALID,99.9189,VALID,-0.0849042,VALID,18.3564,VALID,68,VALID,0.242374,
2004-04-30, 01:53:00,VALID,914.025,VALID,0,VALID,99.9456,VALID,-0.0679233,VALID,18.3405,VALID,68,VALID,0.440848,
2004-04-30, 01:54:00,VALID,914.001,VALID,0,VALID,99.9138,VALID,-0.0679233,VALID,18.305,VALID,68,VALID,0.560865,
2004-04-30, 01:55:00,VALID,913.989,VALID,0,VALID,99.957,VALID,-0.0509425,VALID,18.2561,VALID,67,VALID,0.699591,
2004-04-30, 01:56:00,VALID,913.978,VALID,0,VALID,99.9954,VALID,-0.0679233,VALID,18.2466,VALID,67,VALID,0.852095,
2004-04-30, 01:57:00,VALID,913.964,VALID,0,VALID,100,VALID,-0.0339617,VALID,18.2434,VALID,65,VALID,0.763445,
2004-04-30, 01:58:00,VALID,913.933,VALID,0,VALID,100,VALID,-0.0169808,VALID,18.2141,VALID,56,VALID,0.801235,
2004-04-30, 01:59:00,VALID,913.906,VALID,0,VALID,100,VALID,-0.0679233,VALID,18.1984,VALID,54,VALID,0.875,
2004-04-30, 02:00:00,VALID,913.89,VALID,0,VALID,100,VALID,-0.0339617,VALID,18.1818,VALID,54,VALID,0.766352,
2004-04-30, 02:01:00,VALID,913.871,VALID,0,VALID,100,VALID,-0.0849042,VALID,18.1724,VALID,54,VALID,0.752131,
2004-04-30, 02:02:00,VALID,913.858,VALID,0,VALID,100,VALID,-0.0849042,VALID,18.1816,VALID,54,VALID,0.77753,
2004-04-30, 02:03:00,VALID,913.848,VALID,0,VALID,100,VALID,-0.0679233,VALID,18.1664,VALID,52,VALID,0.728516,
2004-04-30, 02:04:00,VALID,913.84,VALID,0,VALID,100,VALID,-0.0849042,VALID,18.1408,VALID,51,VALID,0.389931,
2004-04-30, 02:05:00,VALID,913.845,VALID,0,VALID,100,VALID,-0.0849042,VALID,18.1281,VALID,51,VALID,0.171875,
2004-04-30, 02:06:00,VALID,913.853,VALID,0,VALID,100,VALID,-0.0849042,VALID,18.0984,VALID,51,VALID,0.186756,
2004-04-30, 02:07:00,VALID,913.863,VALID,0,VALID,100,VALID,-0.101885,VALID,18.1025,VALID,51,VALID,0.36101,
2004-04-30, 02:08:00,VALID,913.858,VALID,0,VALID,100,VALID,-0.0679233,VALID,18.0792,VALID,51,VALID,0.539444,
2004-04-30, 02:09:00,VALID,913.886,VALID,0,VALID,100,VALID,-0.0679233,VALID,18.0891,VALID,51,VALID,0.606357,
2004-04-30, 02:10:00,VALID,913.886,VALID,0,VALID,100,VALID,-0.0849042,VALID,18.0956,VALID,51,VALID,0.69436,
2004-04-30, 02:11:00,VALID,913.888,VALID,0,VALID,100,VALID,-0.0849042,VALID,18.1311,VALID,51,VALID,0.757813,
2004-04-30, 02:12:00,VALID,913.892,VALID,0,VALID,100,VALID,-0.0849042,VALID,18.1505,VALID,53,VALID,0.811047,
2004-04-30, 02:13:00,VALID,913.888,VALID,0,VALID,100,VALID,-0.101885,VALID,18.1802,VALID,60,VALID,0.819568,
2004-04-30, 02:14:00,VALID,913.872,VALID,0,VALID,100,VALID,-0.0679233,VALID,18.1927,VALID,65,VALID,0.713246,
2004-04-30, 02:15:00,VALID,913.873,VALID,0,VALID,100,VALID,-0.118866,VALID,18.2056,VALID,78,VALID,0.689495,
2004-04-30, 02:16:00,VALID,913.865,VALID,0,VALID,100,VALID,-0.101885,VALID,18.2118,VALID,88,VALID,0.715909,
2004-04-30, 02:17:00,VALID,913.862,VALID,0,VALID,100,VALID,-0.101885,VALID,18.2478,VALID,91,VALID,0.824963,
2004-04-30, 02:18:00,VALID,913.863,VALID,0,VALID,100,VALID,-0.0849042,VALID,18.2699,VALID,92,VALID,0.949886,
2004-04-30, 02:19:00,VALID,913.87,VALID,0,VALID,100,VALID,-0.0849042,VALID,18.3057,VALID,99,VALID,0.952195,
2004-04-30, 02:20:00,VALID,913.856,VALID,0,VALID,100,VALID,-0.0169808,VALID,18.3184,VALID,117,VALID,0.74707,
2004-04-30, 02:21:00,VALID,913.845,VALID,0,VALID,100,VALID,-0.0849042,VALID,18.2925,VALID,123,VALID,0.87066,
2004-04-30, 02:22:00,VALID,913.839,VALID,0,VALID,100,VALID,-0.0849042,VALID,18.2895,VALID,120,VALID,1.15153,
2004-04-30, 02:23:00,VALID,913.826,VALID,0,VALID,100,VALID,-0.0849042,VALID,18.3027,VALID,121,VALID,0.973292,
2004-04-30, 02:24:00,VALID,913.829,VALID,0,VALID,100,VALID,-0.0849042,VALID,18.3154,VALID,121,VALID,0.606771,
2004-04-30, 02:25:00,VALID,913.819,VALID,0,VALID,100,VALID,-0.0679233,VALID,18.3022,VALID,121,VALID,0.485863,
2004-04-30, 02:26:00,VALID,913.793,VALID,0,VALID,100,VALID,-0.0679233,VALID,18.2895,VALID,127,VALID,0.367001,
2004-04-30, 02:27:00,VALID,913.778,VALID,0,VALID,100,VALID,-0.0679233,VALID,18.2798,VALID,133,VALID,0.716797,
2004-04-30, 02:28:00,VALID,913.761,VALID,0,VALID,100,VALID,-0.0849042,VALID,18.2828,VALID,131,VALID,1.13351,
2004-04-30, 02:29:00,VALID,913.745,VALID,0,VALID,100,VALID,-0.0509425,VALID,18.302,VALID,125,VALID,1.11283,
2004-04-30, 02:30:00,VALID,913.727,VALID,0,VALID,100,VALID,-0.101885,VALID,18.338,VALID,125,VALID,1.27344,
2004-04-30, 02:31:00,VALID,913.727,VALID,0,VALID,100,VALID,-0.101885,VALID,18.3735,VALID,122,VALID,1.02477,
2004-04-30, 02:32:00,VALID,913.704,VALID,0,VALID,100,VALID,-0.0679233,VALID,18.3958,VALID,115,VALID,0.994496,
2004-04-30, 02:33:00,VALID,913.68,VALID,0,VALID,100,VALID,-0.0339617,VALID,18.4304,VALID,117,VALID,1.49546,
2004-04-30, 02:34:00,VALID,913.677,VALID,0,VALID,100,VALID,0.0339617,VALID,18.4689,VALID,119,VALID,1.413,
2004-04-30, 02:35:00,VALID,913.655,VALID,0,VALID,100,VALID,0.0169808,VALID,18.4848,VALID,122,VALID,1.32355,
2004-04-30, 02:36:00,VALID,913.639,VALID,0,VALID,100,VALID,0.0169808,VALID,18.4911,VALID,125,VALID,1.41747,
2004-04-30, 02:37:00,VALID,913.624,VALID,0,VALID,100,VALID,0,VALID,18.5109,VALID,125,VALID,1.32688,
2004-04-30, 02:38:00,VALID,913.623,VALID,0,VALID,100,VALID,0,VALID,18.5206,VALID,132,VALID,1.34003,
2004-04-30, 02:39:00,VALID,913.626,VALID,0,VALID,100,VALID,0,VALID,18.5471,VALID,122,VALID,1.35995,
2004-04-30, 02:40:00,VALID,913.623,VALID,0,VALID,100,VALID,0,VALID,18.537,VALID,137,VALID,1.13808,
2004-04-30, 02:41:00,VALID,913.619,VALID,0,VALID,100,VALID,0.0169808,VALID,18.537,VALID,129,VALID,1.10899,
2004-04-30, 02:42:00,VALID,913.614,VALID,0,VALID,100,VALID,0.0169808,VALID,18.5305,VALID,127,VALID,1.13626,
2004-04-30, 02:43:00,VALID,913.614,VALID,0,VALID,100,VALID,0.0169808,VALID,18.5107,VALID,133,VALID,0.945122,
2004-04-30, 02:44:00,VALID,913.612,VALID,0,VALID,100,VALID,0,VALID,18.5045,VALID,128,VALID,1.09805,
2004-04-30, 02:45:00,VALID,913.607,VALID,0,VALID,100,VALID,0.0169808,VALID,18.4913,VALID,129,VALID,0.990473,
2004-04-30, 02:46:00,VALID,913.596,VALID,0,VALID,100,VALID,0.0509425,VALID,18.4819,VALID,136,VALID,1.07777,
2004-04-30, 02:47:00,VALID,913.598,VALID,0,VALID,100,VALID,0.0169808,VALID,18.4588,VALID,134,VALID,1.0055,
2004-04-30, 02:48:00,VALID,913.585,VALID,0,VALID,100,VALID,0.0169808,VALID,18.4461,VALID,135,VALID,0.844752,
2004-04-30, 02:49:00,VALID,913.587,VALID,0,VALID,100,VALID,0.0509425,VALID,18.4332,VALID,140,VALID,0.796342,
2004-04-30, 02:50:00,VALID,913.577,VALID,0,VALID,100,VALID,0.0169808,VALID,18.424,VALID,147,VALID,0.780523,
2004-04-30, 02:51:00,VALID,913.573,VALID,0,VALID,100,VALID,0,VALID,18.4074,VALID,145,VALID,0.883878,
2004-04-30, 02:52:00,VALID,913.565,VALID,0,VALID,100,VALID,0,VALID,18.4007,VALID,146,VALID,0.734933,
2004-04-30, 02:53:00,VALID,913.572,VALID,0,VALID,100,VALID,0.0509425,VALID,18.388,VALID,143,VALID,0.670422,
2004-04-30, 02:54:00,VALID,913.568,VALID,0,VALID,100,VALID,0,VALID,18.3555,VALID,136,VALID,1.04325,
2004-04-30, 02:55:00,VALID,913.561,VALID,0,VALID,100,VALID,0.0169808,VALID,18.3652,VALID,129,VALID,1.06445,
2004-04-30, 02:56:00,VALID,913.555,VALID,0,VALID,100,VALID,0.0169808,VALID,18.3719,VALID,124,VALID,1.24382,
2004-04-30, 02:57:00,VALID,913.552,VALID,0,VALID,100,VALID,0.0339617,VALID,18.3721,VALID,129,VALID,1.03478,
2004-04-30, 02:58:00,VALID,913.555,VALID,0,VALID,100,VALID,0.0169808,VALID,18.3811,VALID,130,VALID,1.24352,
2004-04-30, 02:59:00,VALID,913.547,VALID,0,VALID,100,VALID,0.0169808,VALID,18.3947,VALID,127,VALID,1.25621,
2004-04-30, 03:00:00,VALID,913.553,VALID,0,VALID,100,VALID,0.0339617,VALID,18.4044,VALID,131,VALID,0.882643,
2004-04-30, 03:01:00,VALID,913.54,VALID,0,VALID,100,VALID,0.0679233,VALID,18.3942,VALID,128,VALID,0.982813,
2004-04-30, 03:02:00,VALID,913.554,VALID,0,VALID,100,VALID,0.0339617,VALID,18.3908,VALID,128,VALID,1.09993,
2004-04-30, 03:03:00,VALID,913.557,VALID,0,VALID,100,VALID,0.0509425,VALID,18.4,VALID,128,VALID,1.06777,
2004-04-30, 03:04:00,VALID,913.549,VALID,0,VALID,100,VALID,0.0339617,VALID,18.42,VALID,132,VALID,0.988281,
2004-04-30, 03:05:00,VALID,913.545,VALID,0,VALID,100,VALID,0.0339617,VALID,18.4069,VALID,130,VALID,0.870164,
2004-04-30, 03:06:00,VALID,913.536,VALID,0,VALID,100,VALID,0.0339617,VALID,18.391,VALID,127,VALID,0.897892,
2004-04-30, 03:07:00,VALID,913.535,VALID,0,VALID,100,VALID,0.0339617,VALID,18.3908,VALID,126,VALID,1.04316,
2004-04-30, 03:08:00,VALID,913.531,VALID,0,VALID,100,VALID,0.0509425,VALID,18.3813,VALID,123,VALID,0.605078,
2004-04-30, 03:09:00,VALID,913.523,VALID,0,VALID,100,VALID,0,VALID,18.3813,VALID,120,VALID,0.60026,
2004-04-30, 03:10:00,VALID,913.52,VALID,0,VALID,100,VALID,0.0169808,VALID,18.3714,VALID,123,VALID,0.941146,
2004-04-30, 03:11:00,VALID,913.511,VALID,0,VALID,100,VALID,0,VALID,18.3806,VALID,130,VALID,0.997852,
2004-04-30, 03:12:00,VALID,913.512,VALID,0,VALID,100,VALID,0.0169808,VALID,18.3843,VALID,123,VALID,0.931548,
2004-04-30, 03:13:00,VALID,913.514,VALID,0,VALID,100,VALID,0.0509425,VALID,18.3945,VALID,124,VALID,0.935547,
2004-04-30, 03:14:00,VALID,913.503,VALID,0,VALID,100,VALID,0.0169808,VALID,18.4104,VALID,124,VALID,0.882813,
2004-04-30, 03:15:00,VALID,913.496,VALID,0,VALID,100,VALID,0.0509425,VALID,18.4362,VALID,123,VALID,0.884896,
2004-04-30, 03:16:00,VALID,913.501,VALID,0,VALID,99.9339,VALID,0.0339617,VALID,18.462,VALID,124,VALID,0.895349,
2004-04-30, 03:17:00,VALID,913.51,VALID,0,VALID,99.7981,VALID,0.0169808,VALID,18.4848,VALID,126,VALID,0.814546,
2004-04-30, 03:18:00,VALID,913.499,VALID,0,VALID,99.6493,VALID,0,VALID,18.4982,VALID,128,VALID,0.952955,
2004-04-30, 03:19:00,VALID,913.501,VALID,0,VALID,99.5565,VALID,0.0169808,VALID,18.4978,VALID,133,VALID,0.860465,
2004-04-30, 03:20:00,VALID,913.495,VALID,0,VALID,99.4077,VALID,0.0169808,VALID,18.4846,VALID,128,VALID,0.844477,
2004-04-30, 03:21:00,VALID,913.499,VALID,0,VALID,99.4522,VALID,0.0339617,VALID,18.4586,VALID,126,VALID,0.796689,
2004-04-30, 03:22:00,VALID,913.488,VALID,0,VALID,99.5463,VALID,0,VALID,18.4491,VALID,126,VALID,0.663707,
2004-04-30, 03:23:00,VALID,913.483,VALID,0,VALID,99.6035,VALID,0.0169808,VALID,18.4426,VALID,123,VALID,0.39444,
2004-04-30, 03:24:00,VALID,913.468,VALID,0,VALID,99.7777,VALID,0,VALID,18.4491,VALID,98,VALID,0.699574,
2004-04-30, 03:25:00,VALID,913.459,VALID,0,VALID,99.8985,VALID,0.0339617,VALID,18.4719,VALID,89,VALID,0.616477,
2004-04-30, 03:26:00,VALID,913.457,VALID,0,VALID,99.8159,VALID,0.0339617,VALID,18.4782,VALID,88,VALID,0.374818,
2004-04-30, 03:27:00,VALID,913.455,VALID,0,VALID,99.7879,VALID,0.0169808,VALID,18.4816,VALID,107,VALID,0.928163,
2004-04-30, 03:28:00,VALID,913.461,VALID,0,VALID,99.8273,VALID,0.0169808,VALID,18.4948,VALID,113,VALID,0.93657,
2004-04-30, 03:29:00,VALID,913.457,VALID,0,VALID,99.9023,VALID,0.0169808,VALID,18.5171,VALID,99,VALID,0.781944,
2004-04-30, 03:30:00,VALID,913.452,VALID,0,VALID,99.7574,VALID,0,VALID,18.5003,VALID,100,VALID,0.395312,
2004-04-30, 03:31:00,VALID,913.432,VALID,0,VALID,99.4992,VALID,0.0169808,VALID,18.4484,VALID,99,VALID,0.455669,
2004-04-30, 03:32:00,VALID,913.417,VALID,0,VALID,99.7014,VALID,0.0509425,VALID,18.4461,VALID,97,VALID,1.05723,
2004-04-30, 03:33:00,VALID,913.42,VALID,0,VALID,99.7828,VALID,0.0169808,VALID,18.4749,VALID,96,VALID,0.849702,
2004-04-30, 03:34:00,VALID,913.396,VALID,0,VALID,99.7497,VALID,0,VALID,18.4883,VALID,100,VALID,1.07396,